Aérodrome :
LOGIN :

S'inscrire | Disclaimer

   EN    FR    IT 

 










Légende :    VFR   VFR Marginal   IFR   IFR Intensif   IFR Très Intensif
Visi : 
Plafond : 
>= 8 km
>= 3000ft
5 à 8 km
1000 à 3000 ft
1500m à 5 km
500 à 1000 ft
800 à 1500m
200 à 500 ft
< 800m
< 200 ft
Symboles :   Orages  Brouillard  Fortes neiges  Fortes précipitations  Vent > 20 kt
SIGMETs :   Divers  Orages  Givrage  Turbulence  Onde Orograph.  Cendres Volcan.







- Altitude de l'aérodrome : 1300 ft
- Code IATA : LIG
- Voir les cartes d'approche


LFBL - Limoges

DERNIER METAR :
  • 161500Z AUTO 16006KT 120V200 CAVOK 17/M03 Q1025 NOSIG

METARs EXPIRÉS :
  • 161430Z AUTO 17009KT 120V190 CAVOK 16/M02 Q1026 NOSIG
  • 161400Z AUTO 16008KT 130V190 CAVOK 16/M00 Q1026 NOSIG
  • 161330Z AUTO 16007KT 130V220 CAVOK 15/M00 Q1026 NOSIG
  • 161300Z AUTO 18009KT 140V200 CAVOK 15/00 Q1026 NOSIG

TAF TAF LFBL
Valide du 16 à 12h jusqu'au 17 à 12h UTC


161100Z 1612/1712 14008KT CAVOK
TEMPO 1617/1621 VRB03KT
ATIS : +33 5 55 48 40 37
Pas de NOTAMs connus pour ce terrain.



MET'MAP, la Météo Aéronautique d'un coup d'oeil ! - Copyright ORBIFLY Décembre 2007 - Disclaimer

ORBIFLY MET'MAP TEAM :

Programmation & Développement : Alexandra Zaïnal
Conception & Développement : Baudouin d'Aumeries
Co-Programmation & Développement : Marc-Olivier Méhu
Soutien technique & logistique : Manuel Goepfert

Contact : metmap@orbifly.com




SOURCES & CREDITS :

   NOAA